Content
SEND FEEDBACK

Daily
Averages
Monthly
Summary
United States of America

PYGA BEACH, GUAM


Home > North America > United States > Guam
Elevation: 20 feet     Latitude: 13 17N     Longitude: 144 39E

WEATHER
 
SELECT A DAY
Number of Records: 354,808;   Date Range: 1/1/95 - 11/27/14
 
SHARE

PRINT THIS DATA

[ ← Previous Day ]
WEATHER ALMANAC - JULY 16, 2013
[ Next Day → ]
[ °C ]   °F
Weather ElementAverageHighLow
Temperature81.6 °F86.5 °F (1:55 pm)77 °F (6:36 pm)
Dewpoint76.7 °F79.5 °F (11:55 am)73.4 °F (6:36 pm)
Humidity85.4 %94 % (9:42 pm)77 % (2:55 pm)
Barometer29.79 in29.83 in (9:31 pm)29.74 in (3:55 pm)
Wind Speed9.4 mph18.4 mph (6:18 pm)
Weather ElementAverage
Visibility9.8 mi
Wind DirectionESE (120 °)

Weather ElementTotal
Precipitation0.02 in
Cooling Degree Days16.8 (Base 65)
Growing Degree Days31.8 (Base 50)
Averaged from 61 records on July 16, 2013
WEATHER CONDITIONS BREAKOUT
WIND DIRECTION BREAKOUT
WEATHER BY HOUR - JULY 16, 2013
[ °C ]   °F
Local TimeTemperatureDewpointHumidityBarometerVisibilityWind DirectionWind SpeedGust SpeedPrecipitationEventsConditions
1:55 AM79.9 °F75.9 °F88 %29.78 in10.0 miESE (110°)8.1 mphPartly Cloudy
2:55 AM79.9 °F75.4 °F86 %29.77 in10.0 miESE (110°)6.9 mphScattered Clouds
3:06 AM80.6 °F75.2 °F84 %29.77 in10.0 miESE (110°)8.1 mphMostly Cloudy
3:08 AM80.6 °F75.2 °F84 %29.77 in10.0 miESE (110°)8.1 mphScattered Clouds
3:09 AM80.6 °F75.2 °F84 %29.77 in10.0 miESE (110°)8.1 mphMostly Cloudy
3:11 AM80.6 °F75.2 °F84 %29.77 in10.0 miESE (110°)8.1 mphScattered Clouds
3:23 AM80.6 °F75.2 °F84 %29.77 in10.0 miESE (110°)9.2 mphMostly Cloudy
3:25 AM80.6 °F77.0 °F89 %29.77 in10.0 miESE (110°)8.1 mphScattered Clouds
3:39 AM80.6 °F75.2 °F84 %29.77 in10.0 miESE (120°)9.2 mphMostly Cloudy
3:41 AM80.6 °F75.2 °F84 %29.77 in10.0 miEast (100°)9.2 mphScattered Clouds
3:55 AM79.5 °F75.6 °F88 %29.77 in10.0 miESE (110°)6.9 mphScattered Clouds
4:55 AM79.9 °F75.7 °F87 %29.77 in10.0 miESE (120°)6.9 mphScattered Clouds
5:05 AM80.6 °F75.2 °F84 %29.77 in10.0 miESE (120°)9.2 mphMostly Cloudy
5:07 AM80.6 °F75.2 °F84 %29.77 in10.0 miSE (130°)9.2 mphScattered Clouds
5:15 AM80.6 °F75.2 °F84 %29.77 in10.0 miSE (130°)8.1 mphMostly Cloudy
5:21 AM80.6 °F75.2 °F84 %29.77 in10.0 miESE (120°)10.4 mphScattered Clouds
5:55 AM80.1 °F75.0 °F85 %29.78 in10.0 miSE (130°)10.4 mphScattered Clouds
6:07 AM80.6 °F75.2 °F84 %29.78 in10.0 miESE (120°)10.4 mphMostly Cloudy
6:17 AM80.6 °F75.2 °F84 %29.78 in10.0 miESE (120°)11.5 mphScattered Clouds
6:55 AM81.0 °F76.3 °F86 %29.79 in10.0 miESE (120°)11.5 mphPartly Cloudy
7:55 AM83.3 °F77.0 °F81 %29.80 in10.0 miSE (130°)12.7 mphPartly Cloudy
8:28 AM82.4 °F77.0 °F84 %29.81 in10.0 miSE (130°)13.8 mphMostly Cloudy
8:39 AM82.4 °F77.0 °F84 %29.81 in10.0 miSE (130°)10.4 mphScattered Clouds
8:43 AM82.4 °F77.0 °F84 %29.81 in10.0 miSE (130°)11.5 mphMostly Cloudy
8:45 AM82.4 °F77.0 °F84 %29.81 in10.0 miSE (130°)11.5 mphScattered Clouds
8:48 AM82.4 °F77.0 °F84 %29.81 in10.0 miESE (110°)9.2 mphMostly Cloudy
8:55 AM83.7 °F78.1 °F83 %29.81 in10.0 miSE (130°)10.4 mphMostly Cloudy
9:01 AM82.4 °F78.8 °F89 %29.81 in10.0 miESE (120°)9.2 mphScattered Clouds
9:25 AM84.2 °F78.8 °F84 %29.81 in10.0 miESE (120°)9.2 mphMostly Cloudy
9:27 AM84.2 °F78.8 °F84 %29.81 in10.0 miEast (100°)9.2 mphScattered Clouds
9:40 AM84.2 °F78.8 °F84 %29.81 in10.0 miESE (120°)10.4 mphMostly Cloudy
9:55 AM83.7 °F78.4 °F84 %29.81 in10.0 miSE (130°)10.4 mphMostly Cloudy
10:19 AM86.0 °F78.8 °F79 %29.81 in10.0 miSE (140°)11.5 mphScattered Clouds
10:55 AM85.5 °F77.9 °F78 %29.80 in10.0 miESE (120°)10.4 mphScattered Clouds
11:55 AM86.4 °F79.5 °F80 %29.80 in10.0 miESE (120°)9.2 mphPartly Cloudy
12:55 PM86.2 °F79.2 °F79 %29.77 in10.0 miESE (110°)9.2 mphScattered Clouds
1:55 PM86.5 °F79.5 °F79 %29.75 in10.0 miESE (110°)9.2 mphPartly Cloudy
2:55 PM85.6 °F77.7 °F77 %29.75 in10.0 miESE (120°)13.8 mphPartly Cloudy
3:55 PM85.5 °F78.1 °F78 %29.74 in10.0 miEast (100°)10.4 mphClear
4:55 PM83.5 °F77.5 °F82 %29.75 in10.0 miEast (100°)6.9 mphMostly Cloudy
5:55 PM83.1 °F78.1 °F85 %29.77 in10.0 miEast (90°)8.1 mphPartly Cloudy
6:12 PM82.4 °F75.2 °F79 %29.78 in10.0 miSE (130°)17.3 mphMostly Cloudy
6:18 PM80.6 °F75.2 °F84 %29.78 in5.0 miSSE (160°)18.4 mphRainLight Rain
6:20 PM80.6 °F75.2 °F84 %29.78 in4.0 miSouth (170°)12.7 mphRainLight Rain
6:36 PM77.0 °F73.4 °F89 %29.79 in10.0 miSSW (200°)5.8 mphLight Drizzle
6:40 PM77.0 °F73.4 °F89 %29.79 in10.0 miSSW (200°)6.9 mphMostly Cloudy
6:55 PM78.8 °F74.5 °F87 %29.79 in10.0 miCalm0.02 inPartly Cloudy
7:55 PM79.3 °F76.8 °F92 %29.81 in10.0 miENE (70°)6.9 mphClear
8:55 PM80.4 °F77.0 °F89 %29.82 in10.0 miEast (100°)6.9 mphPartly Cloudy
9:31 PM80.6 °F77.0 °F89 %29.83 in10.0 miEast (90°)8.1 mphMostly Cloudy
9:33 PM80.6 °F77.0 °F89 %29.83 in10.0 miEast (100°)8.1 mphScattered Clouds
9:42 PM80.6 °F78.8 °F94 %29.83 in10.0 miESE (120°)11.5 mphMostly Cloudy
9:44 PM80.6 °F78.8 °F94 %29.83 in10.0 miSE (130°)13.8 mphMostly Cloudy
9:46 PM80.6 °F77.0 °F89 %29.83 in10.0 miSE (130°)11.5 mphMostly Cloudy
9:54 PM80.6 °F77.0 °F89 %29.83 in10.0 miSE (130°)11.5 mphScattered Clouds
9:55 PM79.9 °F77.4 °F92 %29.83 in10.0 miSE (130°)11.5 mphScattered Clouds
10:55 PM79.3 °F75.9 °F89 %29.83 in10.0 miSE (130°)6.9 mphClear
11:35 PM80.6 °F77.0 °F89 %29.82 in10.0 miEast (80°)4.6 mphLight Drizzle
11:44 PM80.6 °F77.0 °F89 %29.82 in10.0 miESE (120°)4.6 mphScattered Clouds
11:55 PM80.4 °F77.9 °F92 %29.82 in10.0 miSSE (150°)3.5 mph0.00 inScattered Clouds
11:58 PM80.6 °F78.8 °F94 %29.82 in10.0 miSouth (170°)6.9 mphMostly Cloudy
Hourly data recorded from PGUA, located miles away from Pyga Beach, Guam







STORIES FROM OUR PARTNERS